Location: Skalnate Pleso
(49.1889°N, 20.2450°E)
Time: 08:01:01
(UTC+02:00)

Cosmos 1269 Rocket - Pass Details

Date: 22 February 2020
Orbit: 772 x 780 km, 74.1° (Epoch: 04 April)

Event Time Altitude Azimuth Distance (km) Brightness Sun altitude
Exits shadow 02:38:18 19° 20° (NNE) 1,809 6.3 -38.3°
Drops below altitude 10° 02:39:40 10° 21° (NNE) 2,331 7.0 -38.1°
Sets 02:42:04 0° 23° (NNE) 3,263 7.9 -37.7°
